Regional Weather Roundup
Issued by NWS

Home | Current Version | Previous Version | Text Only | Print | Product List | Glossary On
Versions: 1 2 3 4 5 6 7 8 9 10 11 12 13 14 15 16 17 18 19 20 21 22 23 24 25 26 27 28 29 30 31 32 33 34 35 36 37 38 39 40 41 42 43 44 45 46 47 48 49 50
000
ASUS43 KTOP 271308
RWRKS

WEATHER ROUNDUP FOR KANSAS
NATIONAL WEATHER SERVICE GOODLAND KS
800 AM CDT SAT AUG 27 2016

NOTE:  "FAIR" INDICATES FEW OR NO CLOUDS BELOW 12,000 FEET WITH NO
SIGNIFICANT WEATHER AND/OR OBSTRUCTIONS TO VISIBILITY.

KSZ001>006-013>018-027>032-041>047-271400-
NORTHWEST KANSAS

CITY           SKY/WX    TMP DP  RH WIND       PRES   REMARKS
GOODLAND       CLOUDY    56  55  97 CALM      30.07S FOG
HAYS           SUNNY     61  52  72 CALM      30.05R
HILL CITY      CLEAR     58  56  93 N5        30.07R
RUSSELL        MOSUNNY   61  60  97 SE3       30.03R
$$

KSZ061>065-074>080-084>089-271400-
SOUTHWEST KANSAS

CITY           SKY/WX    TMP DP  RH WIND       PRES   REMARKS
DODGE CITY     CLEAR     62  59  90 SE7       30.06S
ELKHART          N/A    N/A N/A N/A MISG        N/A
GARDEN CITY    CLEAR     61  58  90 SE12      30.05S
GREAT BEND     MOSUNNY   64  55  72 CALM      30.03S
LIBERAL        CLEAR     64  57  77 E10       30.08R
PRATT          CLOUDY    63  60  90 E5        30.05S
$$

KSZ066>073-081>083-090>101-271400-
SOUTHEAST KANSAS

CITY           SKY/WX    TMP DP  RH WIND       PRES   REMARKS
CHANUTE        CLOUDY    71  70  96 S5        30.06R FOG
COFFEYVILLE    PTSUNNY   72  71  97 S5        30.06R
HUTCHINSON     SUNNY     66  62  87 SE5       30.03F
MEDICINE LODGE   N/A     66  63  90 E3        30.04R
NEWTON         MOSUNNY   67  64  90 SE9       30.05F
PARSONS        CLOUDY    72  71  97 CALM      30.07R FOG
WICHITA INTL   MOSUNNY   72  68  87 E8        30.04F
WICHITA JABRA  MOSUNNY   68  66  93 SE5       30.05S
WICHITA MCCONL CLOUDY    70  67  89 E8        30.05S
WINFIELD       SUNNY     69  67  93 E3        30.06S
$$

KSZ007>012-019>026-033>040-048>060-102>105-271400-
NORTHEAST KANSAS

CITY           SKY/WX    TMP DP  RH WIND       PRES   REMARKS
CONCORDIA      CLOUDY    64  63  96 S3        30.04R
EMPORIA        SUNNY     69  66  90 SE9       30.03F
LAWRENCE       CLOUDY    68  68 100 SE8       30.04F
MANHATTAN      MOSUNNY   67  66  97 CALM      30.01S
MARYSVILLE     CLOUDY    64  64 100 CALM      30.04R
OLATHE IND     CLOUDY    71  68  90 W3        30.07F
OLATHE EXE     MOSUNNY   72  68  87 CALM      30.06R
SALINA         MOSUNNY   68  64  87 SW8       30.04R
TOPEKA BILLARD MOSUNNY   67  66  97 CALM      30.02F
TOPEKA FORBES  CLOUDY    69  66  90 E5        30.02F
$$




USA.gov is the U.S. government's official web portal to all federal, state and local government web resources and services.